Find SITRO-AIS-27

NORAD ID: 59068 Int'l Des: 2024-039 Owner: SITRO Country: RU Constellation: sitronics operational
LEORETROGRADE

Live Position

Loading 3D Globe...

About SITRO-AIS-27

Description loading...

Upcoming Passes

Passes for default location (London). Set your location on the main map for personalized predictions.

Altitude History

Loading altitude history...

Two-Line Element Set

1 59068U 24039T 26110.59413721 .00004881 00000-0 38114-3 0 9999
2 59068 95.3927 195.6809 0145958 167.8625 192.6181 14.93241884116145
Epoch: Apr 20, 2026 • Age: 9 hours

Current Status

Altitude 534.2 km
Velocity 7.64 km/s
Sub-Earth Point 64.07°N, 164.28°W
Launch Date Feb 29, 2024
Age 2.1 years
Type other

Technical Details

Classification Payload
Mass 3.00 kg
Dry Mass 3.00 kg
Total Mass 3.00 kg
Length 0.30 m
Diameter 0.10 m
Span 0.30 m
Shape Box
Manufacturer SPUT
Bus Type Cubesat 3U
Phase Status In Orbit
Owner/State SITRO/RU

Most Searched